Yunyao-1 38

operational
NORAD ID: 62730 Int'l Des: NNA 2025-013 Owner: YYAO Country: CN
LEOCIRCULARRETROGRADESSO

About Yunyao-1 38

Description loading...

Live Position

Loading 3D Globe...

Upcoming Passes

Altitude History

Altitude vs Time

uPlot chart will show altitude changes over time

Two-Line Element Set

1 62730U 25013B 25312.86137937 .00006942 00000-0 43992-3 0 9997
2 62730 97.6382 117.5697 0014841 48.4386 311.8112 15.09169552 44077
Epoch: Nov 8, 2025 • Age: 33 hours

Current Status

Altitude 550.2 km
Velocity 7.58 km/s
Sub-Earth Point -3.79°S, 169.16°E
Launch Date Jan 20, 2025
Age 0.8 years
Type other

Technical Details

Classification Payload
Mass 50.00 kg
Dry Mass 50.00 kg
Total Mass 50.00 kg
Length 2.00 m
Diameter 1.50 m
Span 5.00 m
Shape Box + pan
Manufacturer CGSTL
Bus Type YY-1
Phase Status In Orbit
Owner/State YYAO/CN

Large Constellations

Loading constellations...